{"data":{"norad_id":69836,"epoch":"2026-09-20T04:35:26.121120Z","epoch_age_seconds":44440,"freshness":"FRESH","line1":"1 69836U 26154T   26263.19127455  .00003804  00000+0  12368-3 0  9990","line2":"2 69836  53.1602 332.9598 0001138  96.5052 263.6080 15.34393282 13199","mean_motion":15.34393282,"eccentricity":0.0001138,"inclination_deg":53.1602,"raan_deg":332.9598,"arg_perigee_deg":96.5052,"mean_anomaly_deg":263.608,"bstar":0.00012368,"rev_number":1319,"period_min":93.848168972888,"perigee_km":461.94471770009,"apogee_km":463.50169748334,"semimajor_km":6840.8602075917,"source":"CELESTRAK","updated_at":"2026-09-20T09:00:44.296109Z"}}